{"data":{"norad_id":63956,"epoch":"2026-09-20T09:53:48.203808Z","epoch_age_seconds":154659,"freshness":"FRESH","line1":"1 63956U 25099E   26263.41236347  .00013119  00000+0  48522-3 0  9991","line2":"2 63956  43.0009 156.7902 0000454 354.7443   5.3404 15.27591955 77111","mean_motion":15.27591955,"eccentricity":4.54e-5,"inclination_deg":43.0009,"raan_deg":156.7902,"arg_perigee_deg":354.7443,"mean_anomaly_deg":5.3404,"bstar":0.00048522,"rev_number":7711,"period_min":94.266010978043,"perigee_km":482.70180247876,"apogee_km":483.32479492589,"semimajor_km":6861.1502987023,"source":"CELESTRAK","updated_at":"2026-09-21T09:00:35.174471Z"}}